Regional Weather Roundup
Issued by NWS

Home | Current Version | Previous Version | Graphics & Text | Print | Product List | Glossary On
Versions: 1 2 3 4 5 6 7 8 9 10 11 12 13 14 15 16 17 18 19 20 21 22 23 24 25 26 27 28 29 30 31 32 33 34 35 36 37 38 39 40 41 42 43 44 45 46 47 48 49 50
000
ASUS43 KDMX 190701
RWRIA

WEATHER ROUNDUP FOR IOWA
NATIONAL WEATHER SERVICE DES MOINES IA
200 AM CDT SAT AUG 19 2017

NOTE: "FAIR" INDICATES FEW OR NO CLOUDS BELOW 12,000 FEET WITH NO
SIGNIFICANT WEATHER AND/OR OBSTRUCTIONS TO VISIBILITY.

* - THESE STATIONS ARE NOT NWS STATIONS...THUS NOT UNDER NWS
QUALITY CONTROL.  THEY ALSO DO NOT REPORT WEATHER SUCH
AS PRECIPITATION OR FOG.

IAZ001>003-012>014-020>022-031>034-043>046-190800-
   NORTHWEST IOWA

CITY           SKY/WX    TMP DP  RH WIND       PRES   REMARKS
CARROLL *      CLOUDY    63  63 100 NW6       29.92R FOG
CHEROKEE *     CLEAR     62  61  97 N3        29.95R
DENISON *      CLOUDY    63  61  94 W5        29.95S
LE MARS *      CLEAR     61  59  94 N6        29.94F
ORANGE CITY *  CLEAR     61  61 100 NW3       29.96S
SHELDON *      PTCLDY    57  57 100 W6        29.94S FOG
SIOUX CITY     CLEAR     62  60  93 NW5       29.93F
SPENCER        FOG       56  56 100 CALM      29.94F VSB 3/4
STORM LAKE *   CLEAR     59  59 100 E3        29.94F
$$

IAZ055>058-069>071-079>083-090>094-190800-
   SOUTHWEST IOWA

CITY           SKY/WX    TMP DP  RH WIND       PRES   REMARKS
ATLANTIC *     MOCLDY    66  64  94 NW10      29.92F
AUDUBON *      CLEAR     64  63  94 CALM      29.94R
CLARINDA *     CLEAR     63  63 100 S5        29.94F FOG
COUNCIL BLFS * CLEAR     66  64  94 N10       29.94F
CRESTON *      CLEAR     66  64  94 SW6       29.93F
HARLAN  *      CLEAR     64  64 100 NW9       29.96F
LAMONI         PTCLDY    69  64  84 W3        29.92S
RED OAK *      PTCLDY    64  63  94 CALM      29.94R
SHENANDOAH *   CLEAR     63  63 100 CALM      29.94F
$$

IAZ047>049-059>061-072>074-084-190800-
   CENTRAL IOWA

CITY           SKY/WX    TMP DP  RH WIND       PRES   REMARKS
AMES           PTCLDY    64  64 100 SE6       29.92F
ANKENY *       LGT RAIN  68  64  88 NE7G14    29.93R
BOONE *        CLOUDY    64  63  94 E7        29.91S
CHARITON *     CLOUDY    68  64  88 S3        29.91S
DES MOINES     MOCLDY    71  66  84 SE7       29.90R THUNDER
GRINNELL*      CLOUDY    64  60  85 NE7       29.95F
KNOXVILLE *    CLOUDY    68  64  88 E3        29.90S
MARSHALLTOWN   CLOUDY    62  61  96 SE8       29.91F
NEWTON *       CLOUDY    66  63  88 E10       29.93R
PELLA *        CLOUDY    69  62  78 E3        29.93R
PERRY *          N/A     66  65  96 CALM      29.91F
$$

IAZ004>006-015-016-023>025-035-036-190800-
   NORTH CENTRAL IOWA

CITY           SKY/WX    TMP DP  RH WIND       PRES   REMARKS
ALGONA *       PTCLDY    61  61 100 CALM      29.94S FOG
CLARION *      CLOUDY    63  63 100 CALM      29.93S
ESTHERVILLE    CLEAR     54  54 100 NW6       29.93F
FORT DODGE *   PTCLDY    61  57  88 CALM      29.95R
MASON CITY     CLEAR     58  56  93 N7        29.95S
FOREST CITY *    N/A     59  59 100 CALM      29.94F
WEBSTER CITY * MOCLDY    63  61  94 CALM      29.91R
IOWA FALLS *   MOCLDY    63  60  92 CALM      29.94R
$$

IAZ007>011-017>019-026>030-037>042-050>054-066-190800-
   NORTHEAST IOWA

CITY           SKY/WX    TMP DP  RH WIND       PRES   REMARKS
CEDAR RAPIDS     N/A     62  60  93 CALM      29.92S
CHARLES CITY * PTCLDY    57  57 100 SE3       29.94S
CLINTON *      PTCLDY    60  59  96 CALM      29.93S
DECORAH *      CLOUDY    55  55 100 CALM      29.93S FOG
DUBUQUE        CLEAR     59  57  93 NE9       29.94S
MONTICELLO *   MOCLDY    57  57 100 CALM      29.93S
OELWEIN *      MOCLDY    55  55 100 SW3       29.96R
WATERLOO       CLOUDY    61  58  90 E6        29.93R
$$

IAZ064-065-067-068-078-190800-
   EAST CENTRAL IOWA

CITY           SKY/WX    TMP DP  RH WIND       PRES   REMARKS
DAVENPORT      PTCLDY    61  58  90 NE6       29.94S
IOWA CITY        N/A     67  60  78 NE5       29.94R
MUSCATINE *    CLOUDY    64  61  88 CALM      29.92R
QUAD CITIES    CLOUDY    68  61  78 NE6       29.91S
$$

IAZ062-063-075>077-085>089-095>099-190800-
   SOUTHEAST IOWA

CITY           SKY/WX    TMP DP  RH WIND       PRES   REMARKS
BURLINGTON     CLOUDY    66  65  96 NE6       29.89F
FAIRFIELD *    CLOUDY    68  63  83 NE9       29.92R
FORT MADISON * CLOUDY    64  64 100 CALM      29.90F
KEOKUK *       PTCLDY    64  64 100 CALM      29.89S
OSKALOOSA *      N/A     66  64  94 E5        29.92S
OTTUMWA        PTCLDY    69  65  86 E7        29.91S
WASHINGTON *   CLOUDY    66  64  94 NE6       29.93S
$$

ABBREVIATIONS USED IN REMARKS
   TC - TEMPERATURES IN CELSIUS
  WCI - WIND CHILL INDEX
   HX - HEAT INDEX
  VSB - VISIBILITY
$$




USA.gov is the U.S. government's official web portal to all federal, state and local government web resources and services.